CWCA

Cartwright  Airport

Cartwright, Canada
Issued Wind Visibility Ceiling Temperature Dew Point Humidity Barometer
Nov-19
17:00 UTC
320°
11 KTS
1 3/4 miles Overcast
500' AGL
C
36° F
C
36° F
100% 29.56" Hg
1001.3 hPa
IFR
Nov-19
16:00 UTC
330°
15 KTS
1 1/2 miles Overcast
500' AGL
C
36° F
C
36° F
100% 29.56" Hg
1001.2 hPa
IFR
Nov-19
15:00 UTC
340°
16 KTS
1 3/4 miles Overcast
500' AGL
C
36° F
C
36° F
100% 29.57" Hg
1001.6 hPa
IFR
Nov-19
14:00 UTC
350°
13 KTS
Gust 19 KTS
1 3/4 miles Overcast
500' AGL
C
36° F
C
34° F
93% 29.58" Hg
1001.8 hPa
IFR
Nov-19
13:00 UTC
360°
14 KTS
2 miles Overcast
500' AGL
C
36° F
C
34° F
93% 29.59" Hg
1002.2 hPa
IFR
Nov-19
12:00 UTC
010°
12 KTS
Gust 19 KTS
2 1/2 miles Overcast
600' AGL
C
34° F
C
34° F
100% 29.59" Hg
1002.3 hPa
IFR
Nov-19
11:39 UTC
010°
13 KTS
Gust 19 KTS
3 miles Overcast
600' AGL
C
34° F
C
34° F
100% 29.59" Hg
1002.1 hPa
IFR
Nov-19
11:00 UTC
010°
13 KTS
Gust 21 KTS
4 miles Overcast
600' AGL
C
34° F
C
34° F
100% 29.59" Hg
1002.3 hPa
IFR
Nov-19
10:31 UTC
010°
12 KTS
Gust 19 KTS
4 miles Overcast
700' AGL
C
34° F
C
34° F
100% 29.59" Hg
1002.2 hPa
IFR
Nov-19
10:00 UTC
360°
16 KTS
Gust 22 KTS
9 miles Overcast
700' AGL
C
34° F
C
34° F
100% 29.59" Hg
1002.1 hPa
IFR
Nov-19
09:00 UTC
010°
13 KTS
Gust 20 KTS
6 miles Overcast
700' AGL
C
34° F
C
34° F
100% 29.6" Hg
1002.5 hPa
IFR
Nov-19
08:00 UTC
010°
12 KTS
Gust 22 KTS
3 miles Overcast
700' AGL
C
34° F
C
34° F
100% 29.61" Hg
1002.8 hPa
IFR
Nov-19
07:00 UTC
010°
11 KTS
Gust 18 KTS
2 miles Overcast
700' AGL
C
34° F
C
34° F
100% 29.61" Hg
1002.9 hPa
IFR
Nov-19
06:00 UTC
010°
10 KTS
Gust 17 KTS
2 miles Overcast
700' AGL
C
34° F
C
34° F
100% 29.62" Hg
1003.1 hPa
IFR
Nov-19
05:00 UTC
030°
11 KTS
Gust 16 KTS
1 1/2 miles Overcast
700' AGL
C
34° F
C
32° F
93% 29.6" Hg
1002.6 hPa
IFR
Nov-19
04:00 UTC
030°
9 KTS
Gust 17 KTS
1 1/2 miles Overcast
700' AGL
C
34° F
C
32° F
93% 29.61" Hg
1002.9 hPa
IFR
Nov-19
03:24 UTC
030°
11 KTS
1 1/2 miles Overcast
700' AGL
C
34° F
C
34° F
100% 29.61" Hg
1003 hPa
IFR
Nov-19
03:00 UTC
030°
10 KTS
2 miles Overcast
700' AGL
C
36° F
C
34° F
93% 29.62" Hg
1003.2 hPa
IFR
Nov-19
02:00 UTC
020°
9 KTS
1 1/2 miles Overcast
700' AGL
C
36° F
C
34° F
93% 29.62" Hg
1003.1 hPa
IFR
Nov-19
01:00 UTC
020°
9 KTS
1 1/2 miles Overcast
700' AGL
C
34° F
C
34° F
100% 29.63" Hg
1003.4 hPa
IFR
Nov-19
00:00 UTC
040°
8 KTS
2 miles Overcast
700' AGL
C
34° F
C
34° F
100% 29.63" Hg
1003.7 hPa
IFR
Nov-18
23:00 UTC
040°
9 KTS
Gust 15 KTS
2 miles Overcast
700' AGL
C
34° F
C
34° F
100% 29.63" Hg
1003.4 hPa
IFR
Nov-18
22:13 UTC
040°
8 KTS
Gust 15 KTS
1 1/2 miles Overcast
700' AGL
C
34° F
C
34° F
100% 29.63" Hg
1003.5 hPa
IFR
Nov-18
22:00 UTC
050°
10 KTS
1 1/2 miles Overcast
700' AGL
C
34° F
C
34° F
100% 29.63" Hg
1003.7 hPa
IFR
Nov-18
21:00 UTC
050°
9 KTS
1 1/4 miles Overcast
700' AGL
C
34° F
C
32° F
93% 29.64" Hg
1003.8 hPa
IFR
Nov-18
20:28 UTC
060°
10 KTS
1 1/4 miles Overcast
700' AGL
C
34° F
C
32° F
93% 29.64" Hg
1003.9 hPa
IFR
Nov-18
20:00 UTC
060°
9 KTS
1/63 miles Vertical visibility
700' AGL
      29.64" Hg
1003.8 hPa
LIFR
Nov-18
19:00 UTC
050°
10 KTS
Gust 17 KTS
1/63 miles Vertical visibility
700' AGL
      29.63" Hg
1003.6 hPa
LIFR
Nov-18
18:41 UTC
060°
12 KTS
1/63 miles Vertical visibility
700' AGL
      29.64" Hg
1003.8 hPa
LIFR
Nov-18
18:00 UTC
050°
9 KTS
Gust 15 KTS
1/2 miles Vertical visibility
700' AGL
      29.64" Hg
1004 hPa
LIFR